ISS DEB (44304 NORAD) Tracking and Keplerian Element Data

This shows tracking and keplerian element data for the satellite.

Feedback or suggestion? Click here.




ElementValue
Catalog44304
NameISS DEB
Epoch Orbit804
Epoch Day201.57719765
Epoch Year2019
RAAN195.2755
Inclination51.6403
Eccentricity0.0006434
Argument of Perigee148.1936
Mean Anonmoly211.9443
Mean Motion15.52393362
Decay Rate5.263E-05
L11 44304U 98067QB 19201.57719765 .00005263 00000-0 92142-4 0 9993
L22 44304 51.6403 195.2755 0006434 148.1936 211.9443 15.52393362 8044

Live tracking and technical data element details for ISS DEB (NORAD 44304). ISS DEB can be tracked NOW for your location showing map with azimuth and elevation plus other details from your city location.

Track the satellite on the map from your city or location and see movement details for azimuth, elevation, latitude, longitude, range, height, and movement on the map or in text.







IsCatalogInMostPopularTable: catalog: 44304, numindb: 14
Update: records affected: 1



GetName: 44304 ISS DEB

Hit Count: updated at: Sun, 21 Jul 2019 14:52:35 GMT